Regional Weather Roundup
Issued by NWS

Home | Current Version | Previous Version | Graphics & Text | Print | Product List | Glossary On
Versions: 1 2 3 4 5 6 7 8 9 10 11 12 13 14 15 16 17 18 19 20 21 22 23 24 25 26 27 28 29 30 31 32 33 34 35 36 37 38 39 40 41 42 43 44 45 46 47 48 49 50
000
ASUS45 KBOU 010207
RWRCO

WEATHER ROUNDUP FOR COLORADO
NATIONAL WEATHER SERVICE DENVER/BOULDER CO
800 PM MDT SUN AUG 31 2014

NOTE: "FAIR" INDICATES FEW OR NO CLOUDS BELOW 12000 FEET WITH NO
SIGNIFICANT WEATHER AND/OR OBSTRUCTIONS TO VISIBILITY.

COZ001>005-013-030-031-010300-
...NORTHWEST COLORADO...

CITY           SKY/WX    TMP DP  RH WIND       PRES   REMARKS
CRAIG          MOCLDY    60  47  61 W5        30.03S
HAYDEN         CLOUDY    63  39  42 SW3       30.05S
MEEKER         CLEAR     64  44  48 NE13      30.03R
MOUNT WERNER   NOT AVBL
STEAMBOAT SPGS CLOUDY    60  44  54 S3        30.08R
WALDEN         PTCLDY    50  37  62 W8        30.13S
$$

COZ006>008-011-010300-
...WEST CENTRAL VALLEYS...

CITY           SKY/WX    TMP DP  RH WIND       PRES   REMARKS
GRAND JUNCTION CLEAR     74  39  28 NW6       29.87R
MONTROSE       PTCLDY    75  36  24 CALM      29.97R
EAGLE          PTCLDY    70  39  32 NW8       30.04R
RIFLE          PTCLDY    72  40  31 W5        29.94R
DELTA          NOT AVBL
NUCLA          PTCLDY    77  30  18 W7        30.00S
$$

COZ017>023-064>068-010300-
...SOUTHWEST COLORADO...

CITY           SKY/WX    TMP DP  RH WIND       PRES   REMARKS
DURANGO        CLEAR     77  31  18 W17       30.05S
CORTEZ         CLEAR     76  36  23 SW6       30.01R
PAGOSA SPRINGS CLEAR     72  28  19 W8        30.15R
TELLURIDE      NOT AVBL
WOLF CREEK PAS PTCLDY    50  28  43 SW30G36   30.44R
$$

COZ009-010-012-014-032>034-037-058>063-010300-
...CENTRAL COLORADO...

CITY           SKY/WX    TMP DP  RH WIND       PRES   REMARKS
ASPEN          PTCLDY    63  35  35 N5        30.09R
BUENA VISTA    PTCLDY    60  36  40 SE9       30.11S
COPPER MTN     PTCLDY    52  23  32 W30G44    30.37R
BERTHOUD PASS  FAIR      37  36  93 W21G28    30.40R
COTTONWOOD PAS PTCLDY    61  28  29 NW3       30.25R
GUNNISON       PTCLDY    64  39  39 NW7       30.12R
KREMMLING      PTCLDY    59  41  51 SE5       30.10R
LEADVILLE      PTCLDY    54  26  34 NW7       30.23R
SALIDA         PTCLDY    69  34  28 SW7G22    30.17R
SUNLIGHT       CLEAR     50  41  71 CALM      30.32R
WILKERSON PASS NOT AVBL
$$

COZ069>075-010300-
...SAN LUIS VALLEY/SANGRE DE CRISTO MOUNTAINS...

CITY           SKY/WX    TMP DP  RH WIND       PRES   REMARKS
ALAMOSA        CLEAR     67  32  27 W9        30.10R
LA VETA PASS   NOT AVBL
SAGUACHE       NOT AVBL
$$

COZ035-036-038>040-010300-
...NORTHERN COLORADO FRONT RANGE...

CITY           SKY/WX    TMP DP  RH WIND       PRES   REMARKS
DENVER INTL AP CLOUDY    63  49  60 SE6       29.95S
DMNS CITY PARK   N/A     62  52  68 E1        29.94R
AURORA         PTCLDY    62  49  63 S8        29.97S
FRONT RANGE AP NOT AVBL
ERIE MUNI ARPT MOCLDY    62  54  74 W3        29.93R
BOULDER MUN AP MOCLDY    63  54  72 CALM      29.94R
CENTENNIAL     MOCLDY    65  48  54 E3        29.97S
BROOMFIELD     MOCLDY    64  54  68 CALM      29.96R
FORT COLLINS   MOCLDY    66  52  59 CALM      29.93R
LONGMONT       LGT RAIN  63  57  82 W7        29.95R
$$

COZ041-046-047-076>085-087-088-010300-
...PIKES PEAK/PALMER DIVIDE AND SOUTHERN FOOTHILLS...

CITY           SKY/WX    TMP DP  RH WIND       PRES   REMARKS
COLO. SPRINGS  MOCLDY    70  47  43 E13       30.00R
A. F. ACADEMY  PTCLDY    65  49  56 N9        30.00R
ELLICOTT       PTCLDY    66  48  52 E14       29.98R
FALCON         PTCLDY    61  47  61 NE10      30.04S
FORT CARSON    CLOUDY    72  49  45 E8        29.97R
LIMON          PTCLDY    63  48  58 E5        29.94R
MONUMENT HILL  PTCLDY    57  46  67 E9        30.05R
TRINIDAD       PTCLDY    77  33  20 W10       29.92R
$$

COZ042>045-048>051-090-091-010300-
...NORTHEAST COLORADO...

CITY           SKY/WX    TMP DP  RH WIND       PRES   REMARKS
GREELEY ARPT   MOCLDY    64  48  55 S6        29.92R
AKRON          MOCLDY    65  49  56 S9        29.91R
BURLINGTON     MOCLDY    65  55  70 CALM      29.88R
WRAY             N/A     69  55  62 E3        29.85R
STERLING       MOCLDY    68  57  68 N10       29.88R
HOLYOKE        PTCLDY    61  54  77 NW3       29.86R
FORT MORGAN    MOCLDY    64  53  67 S8        29.91R
$$

COZ086-089-092>099-010300-
...SOUTHEAST COLORADO...

CITY           SKY/WX    TMP DP  RH WIND       PRES   REMARKS
PUEBLO         PTCLDY    77  48  35 E13       29.87R
LA JUNTA       PTCLDY    72  51  47 NE14      29.85R
LAMAR          MOCLDY    71  52  50 NE8       29.81R
SPRINGFIELD      N/A     73  55  53 N16       29.83R
$$


USA.gov is the U.S. government's official web portal to all federal, state and local government web resources and services.